Location: ???????
(55.2903°N, 39.1554°E)
Time: 10:01:03
(UTC+00:00)

Cosmos 1743 - Pass Details

Date: 14 April 2024
Orbit: 475 x 491 km, 82.5° (Epoch: 19 May)

Event Time Altitude Azimuth Distance (km) Brightness Sun altitude
Rises 00:12:52 0° 338° (NNW) 2,599 6.6 -16.2°
Reaches altitude 10° 00:15:18 10° 324° (NW) 1,707 5.4 -16.0°
Maximum altitude 00:18:13 22° 272° (W) 1,126 4.0 -15.7°
Enters shadow 00:18:15 22° 271° (W) 1,126 4.0 -15.7°
